Regional Weather Roundup
Issued by NWS

Home | Current Version | Previous Version | Text Only | Print | Product List | Glossary On
Versions: 1 2 3 4 5 6 7 8 9 10 11 12 13 14 15 16 17 18 19 20 21 22 23 24 25 26 27 28 29 30 31 32 33 34 35 36 37 38 39 40 41 42 43 44 45 46 47 48 49 50
000
ASCA44 KEWX 060920
RWRMX

LATIN AMERICA AND CARIBBEAN REGIONAL WEATHER ROUNDUP
NATIONAL WEATHER SERVICE AUSTIN/SAN ANTONIO TX
400 AM CDT FRI MAY 06 2016

NOTE: "FAIR" INDICATED FEW OR NO CLOUDS BELOW 12,000 FEET WITH NO
SIGNIFICANT WEATHER AND/OR OBSTRUCTIONS TO VISIBILITY.

BAJA CALIFORNIA

CITY           SKY/WX    TMP DP  RH WIND       PRES   REMARKS
MEXICALI         N/A    N/A N/A N/A MISG        N/A
S.J. DEL CABO    N/A    N/A N/A N/A MISG        N/A
TIJUANA        MOCLDY    57  52  82 CALM      29.89F

NORTHWESTERN MEXICO

CITY           SKY/WX    TMP DP  RH WIND       PRES   REMARKS
HERMOSILLO     CLEAR     72  63  73 CALM      29.87S

NORTHEASTERN MEXICO

CITY           SKY/WX    TMP DP  RH WIND       PRES   REMARKS
MONCLOVA         N/A    N/A N/A N/A MISG        N/A
MONTERREY      PTCLDY    66  48  52 E5        29.99F
REYNOSA          N/A    N/A N/A N/A MISG        N/A
CD. VICTORIA     N/A    N/A N/A N/A MISG        N/A

WESTERN MEXICO

CITY           SKY/WX    TMP DP  RH WIND       PRES   REMARKS
AGUASCALIENTES   N/A    N/A N/A N/A MISG        N/A
COLIMA           N/A    N/A N/A N/A MISG        N/A
GUADALAJARA    CLEAR     66  46  48 W7        30.14S
MAZATLAN       PTCLDY    68  64  88 SE6       29.88F
P. VALLARTA    CLEAR     72  70  94 CALM      29.87S
URUAPAN          N/A    N/A N/A N/A MISG        N/A
ZACATECAS      CLEAR     55  32  41 CALM      30.28S

CENTRAL MEXICO

CITY           SKY/WX    TMP DP  RH WIND       PRES   REMARKS
CUERNAVACA       N/A    N/A N/A N/A MISG        N/A
MEXICO CITY    PTCLDY    61  46  59 NE9       30.31F
MORELIA        PTCLDY    64  54  68 CALM      30.20F
POZA RICA        N/A    N/A N/A N/A MISG        N/A
QUERETARO      CLEAR     57  52  82 E8        30.29F
S. LUIS POTOSI CLEAR     54  46  76 CALM      30.24S
TOLUCA         PTCLDY    57  52  82 NW6       30.39F

SOUTHERN MEXICO

CITY           SKY/WX    TMP DP  RH WIND       PRES   REMARKS
ACAPULCO       MOCLDY    81  75  83 CALM      29.86F
B. DE HUATULCO   N/A    N/A N/A N/A MISG        N/A
P. ESCONDIDO     N/A    N/A N/A N/A MISG        N/A
VERACRUZ         N/A    N/A N/A N/A MISG        N/A

YUCATAN PENINSULA

CITY           SKY/WX    TMP DP  RH WIND       PRES   REMARKS
CAMPECHE         N/A    N/A N/A N/A MISG        N/A
CANCUN         CLEAR     61  61 100 W3        29.92R
CHETUMAL         N/A    N/A N/A N/A MISG        N/A
CD. DEL CARMEN   N/A    N/A N/A N/A MISG        N/A
COZUMEL        CLEAR     70  64  83 N12       29.91S
MERIDA         MOCLDY    68  59  73 CALM      29.94S
MINATITLAN       N/A    N/A N/A N/A MISG        N/A
TAPACHULA      PTCLDY    79  77  94 CALM      29.77F
VILLAHERMOSA   CLOUDY    72  70  94 CALM      29.99

CENTRAL AMERICA

CITY           SKY/WX    TMP DP  RH WIND       PRES   REMARKS

CARIBBEAN

CITY           SKY/WX    TMP DP  RH WIND       PRES   REMARKS
ARUBA          PTCLDY    82  77  83 E15       29.77S HX  91
CURACAO        PTCLDY    81  77  89 SE13      29.83
KINGSTON       LGT RAIN  79  75  89 E3        29.77F
NASSAU           N/A     70  63  78 CALM      29.81S
SAN JUAN       PTCLDY    79  73  83 SE5       29.89S
SANTO DOMINGO  PTCLDY    75  73  94 S12       29.83S
ST. CROIX      PTCLDY    81  75  83 SE9       29.92S
ST. MAARTEN    PTCLDY    81  75  83 SE14      29.92S
ST. THOMAS     PTCLDY    81  75  83 E12       29.91

$$




USA.gov is the U.S. government's official web portal to all federal, state and local government web resources and services.